Regional Weather Roundup
Issued by NWS Upton, NY

Home | Current Version | Previous Version | Text Only | Print | Product List | Glossary On
Versions: 1 2 3 4 5 6 7 8 9 10 11 12 13 14 15 16 17 18 19 20 21 22 23 24 25 26 27 28 29 30 31 32 33 34 35 36 37 38 39 40 41 42 43 44 45 46 47 48 49
000
ASUS41 KOKX 012104
RWROKX

REGIONAL WEATHER ROUNDUP
NATIONAL WEATHER SERVICE NEW YORK NY
500 PM EDT TUE SEP 01 2015

NOTE: "FAIR" INDICATES FEW OR NO CLOUDS BELOW 12,000 FEET WITH NO
SIGNIFICANT WEATHER AND/OR OBSTRUCTIONS TO VISIBILITY.

NYZ071-072-176-178-NJZ106-104-012200-
NEW YORK CITY METRO AREA


CITY           SKY/WX    TMP DP  RH WIND       PRES   REMARKS
CENTRAL PARK   SUNNY     85  64  49 VRB3      30.04S
LAGUARDIA APRT MOSUNNY   85  63  47 CALM      30.00F
KENNEDY INTL   MOSUNNY   83  65  54 SE8       30.02F
NEWARK/LIBERTY MOSUNNY   85  65  51 SE8       30.00F
BRNX BOT. GARD   N/A     84  64  51 SE6       30.02F
TETERBORO      SUNNY     88  62  41 S5        29.99F
$$

NYZ177-179-078>081-012200-
LONG ISLAND NEW YORK

CITY           SKY/WX    TMP DP  RH WIND       PRES   REMARKS
FARMINGDALE    SUNNY     83  62  49 S9        30.02F
ISLIP          MOSUNNY   81  61  50 SE8       30.01F
SHIRLEY        SUNNY     82  62  50 S7        30.03F
WESTHAMPTON    SUNNY     80  62  54 S7        30.04F
MONTAUK POINT    N/A     78  66  66 SE6       30.04F
$$

NYZ052-065-067-012200-
HUDSON VALLEY

CITY           SKY/WX    TMP DP  RH WIND       PRES   REMARKS
WHITE PLAINS   MOSUNNY   85  60  42 SE5       30.01F
NEWBURGH       SUNNY     84  63  48 W6        30.06R
MONTGOMERY     SUNNY     87  62  43 NE5       30.02F
POUGHKEEPSIE   SUNNY     86  59  39 CALM      30.01F
ALBANY         MOSUNNY   86  61  42 VRB5      30.01F
$$

NJZ001-105-106-008-010-013-015-019>022-104-012200-
NEW JERSEY

CITY           SKY/WX    TMP DP  RH WIND       PRES   REMARKS
NEWARK/LIBERTY MOSUNNY   85  65  51 SE8       30.00F
TETERBORO      SUNNY     88  62  41 S5        29.99F
CALDWELL       SUNNY     89  57  33 CALM      30.00F
MORRISTOWN     PTSUNNY   88  61  40 SE5       30.01F
SOMERVILLE     SUNNY     90  62  39 NW7       29.98F HX  90
SUSSEX         SUNNY     85  61  44 CALM      30.03F
ANDOVER          N/A     86  63  45 CALM      30.04F
TRENTON        SUNNY     89  63  41 SW6       30.00S HX  90
MILLVILLE      SUNNY     87  70  56 MISG      30.00S HX  92
ATLANTIC CITY  MOSUNNY   84  71  65 SE10      30.02S
WRIGHTSTOWN    SUNNY     84  69  61 E9        29.98R
TOMS RIVER     SUNNY     82  66  57 SE8       30.02F
BELMAR         SUNNY     82  63  51 SE7       30.03S
$$

PAZ047>061-062-071-012200-
EASTERN PENNSYLVANIA

CITY           SKY/WX    TMP DP  RH WIND       PRES   REMARKS
PHILADELPHIA   MOSUNNY   94  60  32 CALM      29.99S HX  94
ALLENTOWN      SUNNY     89  64  43 NE5       30.02F HX  90
SCRANTON       SUNNY     87  60  40 W5        30.05S
$$

CTZ002-004>006-009-010-012-RIZ004-006-007-MAZ004-011-015-012200-
SOUTHERN NEW ENGLAND
 IN CT

CITY           SKY/WX    TMP DP  RH WIND       PRES   REMARKS
BRADLEY INTL   SUNNY     86  57  37 CALM      30.01F
HARTFORD       SUNNY     87  54  32 CALM      30.00F
DANBURY        SUNNY     83  58  42 CALM      30.03F
WTRBRY/OXFORD  NOT AVBL
BRIDGEPORT     SUNNY     84  60  44 S6        30.01F
MERIDEN        SUNNY     87  61  41 S8        30.00F
NEW HAVEN      SUNNY     83  62  49 S6        30.02F
CHESTER        NOT AVBL
GROTON         SUNNY     76  67  73 SE9       30.03S
WILLIMANTIC    SUNNY     87  55  33 W7        30.01F

 IN RI

CITY           SKY/WX    TMP DP  RH WIND       PRES   REMARKS
PROVIDENCE     MOSUNNY   81  62  52 S10       30.02S
BLOCK ISLAND   SUNNY     77  66  69 SE8       30.04F
WESTERLY       SUNNY     77  64  64 S9        30.04S

 IN MA

CITY           SKY/WX    TMP DP  RH WIND       PRES   REMARKS
BOSTON         SUNNY     73  61  65 E15       30.03S
WORCESTER      SUNNY     81  57  43 SW8       30.06R
WESTFIELD      SUNNY     86  51  29 CALM      30.01F
PROVINCETOWN     N/A     75  59  57 E9        30.04S
NANTUCKET      SUNNY     76  60  57 SE8       30.04S
$$

ANZ330-335-338-340-345-350-353-355-012200-
COASTAL MARINE OBSERVATIONS


STATION/POSITION TIME  SKY/WX   TEMP    WIND        PRES    VSBY  WAVE
                                AIR SEA DIR/SP/G                  HT/PER
                 (UTC)          (F)     (DEG/KT/KT) (MB)    (MI)  (FT/S)
NY HARB ENTRANCE 1950            76 77  130/ 10/ 12 1016.6          2/ 8
4S FIRE IS       NOT AVBL
20S FIRE ISLAND  1950            76 76  130/  4/  6 1016.9          2/ 8
GREAT SOUTH BAY  2000            76 80  170/  8/ 10   N/A
23SW MTP         2050            73 73  130/  6/  8 1016.5          2/ 8
HUDSON CANYON    NOT AVBL
KINGS POINT      2000            82 74  160/  5/  7 1015.8
EXECUTION ROCKS  2000            81      90/  4/  4   N/A
CENTRAL LI SOUND NOT AVBL
EASTERN LI SOUND 2000            72 70  140/  8/ 10   N/A
ROBBINS REEF     2000            78     180/ 12/ 14 1015.3
$$


>>>>>>>>>>>>>>>>>>>>>>>>>>>> KEY <<<<<<<<<<<<<<<<<<<<<<<<<<<
>                                                          <
>     SKY/WX - SKY CONDITION/PRESENT WEATHER               <
>     TMP    - TEMPERATURE IN FAHRENHEIT                   <
>     DP     - DEWPOINT IN FAHRENHEIT                      <
>     RH     - RELATIVE HUMIDITY IN PERCENT                <
>     WIND   - DIRECTION AND SPEED IN MPH                  <
>     PRES   - MEAN SEA LEVEL PRESSURE IN INCHES OF HG     <
>     WCI    - WIND CHILL INDEX                            <
>     VSB    - VISIBILITY IN MILES                         <
>     HX     - HEAT INDEX                                  <
>     TC     - TEMPERATURE IN CELSIUS                      <
>     VRB    - VARIABLE WIND DIRECTION                     <
>                                                          <
>>>>>>>>>>>>>>>>>>>>>>>>>>>> KEY <<<<<<<<<<<<<<<<<<<<<<<<<<<





USA.gov is the U.S. government's official web portal to all federal, state and local government web resources and services.